Time,TemperatureF,DewpointF,PressureIn,WindDirection,WindDirectionDegrees,WindSpeedMPH,WindSpeedGustMPH,Humidity,HourlyPrecipIn,Conditions,Clouds,dailyrainin,SolarRadiationWatts/m^2,SoftwareType,DateUTC
2013-02-06 00:00:00,27.7,22.0,30.13,ENE,71,0.0,0.0,79,0.00,,,0.00,0,Wunderground v.1.15,2013-02-06 07:00:00,
2013-02-06 00:20:00,27.6,22.2,30.12,ENE,71,0.0,0.0,80,0.00,,,0.00,0,Wunderground v.1.15,2013-02-06 07:20:00,
2013-02-06 00:25:00,27.4,22.0,30.12,ENE,71,0.0,0.0,80,0.00,,,0.00,0,Wunderground v.1.15,2013-02-06 07:25:00,
2013-02-06 00:35:00,27.1,21.7,30.12,ENE,70,0.0,0.0,80,0.00,,,0.00,0,Wunderground v.1.15,2013-02-06 07:35:00,
2013-02-06 00:45:00,26.9,21.8,30.12,ENE,71,0.0,0.0,81,0.00,,,0.00,0,Wunderground v.1.15,2013-02-06 07:45:00,
2013-02-06 00:50:00,26.7,21.7,30.11,ENE,71,0.0,0.0,81,0.00,,,0.00,0,Wunderground v.1.15,2013-02-06 07:50:00,
2013-02-06 01:00:00,26.5,21.5,30.12,ENE,70,0.0,0.0,81,0.00,,,0.00,0,Wunderground v.1.15,2013-02-06 08:00:00,
2013-02-06 01:05:00,26.5,21.5,30.11,ENE,70,0.0,0.0,81,0.00,,,0.00,0,Wunderground v.1.15,2013-02-06 08:05:00,
2013-02-06 01:15:00,26.2,21.2,30.12,ENE,71,0.0,0.0,81,0.00,,,0.00,0,Wunderground v.1.15,2013-02-06 08:15:00,
2013-02-06 01:25:00,26.0,21.0,30.12,ENE,71,0.0,0.0,81,0.00,,,0.00,0,Wunderground v.1.15,2013-02-06 08:25:00,
2013-02-06 01:30:00,25.9,20.6,30.11,ENE,71,0.0,0.0,80,0.00,,,0.00,0,Wunderground v.1.15,2013-02-06 08:30:00,
2013-02-06 01:35:00,25.7,20.4,30.12,ENE,71,0.0,0.0,80,0.00,,,0.00,0,Wunderground v.1.15,2013-02-06 08:35:00,
2013-02-06 01:45:00,25.3,20.0,30.12,ENE,71,0.0,0.0,80,0.00,,,0.00,0,Wunderground v.1.15,2013-02-06 08:45:00,
2013-02-06 01:55:00,25.0,19.7,30.12,ENE,71,0.0,0.0,80,0.00,,,0.00,0,Wunderground v.1.15,2013-02-06 08:55:00,
2013-02-06 02:00:00,24.9,19.9,30.12,ENE,71,0.0,0.0,81,0.00,,,0.00,0,Wunderground v.1.15,2013-02-06 09:00:00,
2013-02-06 02:10:00,25.1,20.4,30.12,ENE,71,0.0,0.0,82,0.00,,,0.00,0,Wunderground v.1.15,2013-02-06 09:10:00,
2013-02-06 02:20:00,24.9,20.2,30.11,ENE,71,0.0,0.0,82,0.00,,,0.00,0,Wunderground v.1.15,2013-02-06 09:20:00,
2013-02-06 02:25:00,24.8,20.1,30.11,ENE,71,0.0,0.0,82,0.00,,,0.00,0,Wunderground v.1.15,2013-02-06 09:25:00,
2013-02-06 02:35:00,24.6,19.9,30.11,ENE,71,0.0,0.0,82,0.00,,,0.00,0,Wunderground v.1.15,2013-02-06 09:35:00,
2013-02-06 02:40:00,24.6,19.9,30.12,ENE,71,0.0,0.0,82,0.00,,,0.00,0,Wunderground v.1.15,2013-02-06 09:40:00,
2013-02-06 02:50:00,24.3,19.9,30.11,ENE,70,0.0,0.0,83,0.00,,,0.00,0,Wunderground v.1.15,2013-02-06 09:50:00,
2013-02-06 03:00:00,24.1,19.7,30.11,ENE,70,0.0,0.0,83,0.00,,,0.00,0,Wunderground v.1.15,2013-02-06 10:00:00,
2013-02-06 03:05:00,24.1,19.7,30.11,ENE,71,0.0,0.0,83,0.00,,,0.00,0,Wunderground v.1.15,2013-02-06 10:05:00,
2013-02-06 03:15:00,24.0,19.6,30.11,ENE,71,0.0,0.0,83,0.00,,,0.00,0,Wunderground v.1.15,2013-02-06 10:15:00,
2013-02-06 03:25:00,23.7,19.3,30.11,ENE,71,0.0,0.0,83,0.00,,,0.00,0,Wunderground v.1.15,2013-02-06 10:25:00,
2013-02-06 03:35:00,23.5,19.4,30.11,ENE,71,0.0,0.0,84,0.00,,,0.00,0,Wunderground v.1.15,2013-02-06 10:35:00,
2013-02-06 03:40:00,23.3,18.9,30.11,ENE,71,0.0,0.0,83,0.00,,,0.00,0,Wunderground v.1.15,2013-02-06 10:40:00,
2013-02-06 03:50:00,23.0,18.6,30.11,ENE,71,0.0,0.0,83,0.00,,,0.00,0,Wunderground v.1.15,2013-02-06 10:50:00,
2013-02-06 03:55:00,22.9,18.5,30.11,ENE,71,0.0,0.0,83,0.00,,,0.00,0,Wunderground v.1.15,2013-02-06 10:55:00,
2013-02-06 04:05:00,23.0,18.9,30.11,ENE,71,0.0,0.0,84,0.00,,,0.00,0,Wunderground v.1.15,2013-02-06 11:05:00,
2013-02-06 04:15:00,23.0,18.9,30.12,ENE,71,0.0,0.0,84,0.00,,,0.00,0,Wunderground v.1.15,2013-02-06 11:15:00,
2013-02-06 04:25:00,22.7,18.6,30.12,ENE,71,0.0,0.0,84,0.00,,,0.00,0,Wunderground v.1.15,2013-02-06 11:25:00,
2013-02-06 04:35:00,22.6,18.5,30.12,ENE,70,0.0,0.0,84,0.00,,,0.00,0,Wunderground v.1.15,2013-02-06 11:35:00,
2013-02-06 04:45:00,22.4,18.3,30.11,ENE,70,0.0,0.0,84,0.00,,,0.00,0,Wunderground v.1.15,2013-02-06 11:45:00,
2013-02-06 04:55:00,22.1,18.0,30.12,ENE,71,0.0,0.0,84,0.00,,,0.00,0,Wunderground v.1.15,2013-02-06 11:55:00,
2013-02-06 05:05:00,22.2,18.1,30.12,ENE,71,0.0,0.0,84,0.00,,,0.00,0,Wunderground v.1.15,2013-02-06 12:05:00,
2013-02-06 05:15:00,22.0,17.9,30.12,ENE,71,0.0,0.0,84,0.00,,,0.00,0,Wunderground v.1.15,2013-02-06 12:15:00,
2013-02-06 05:20:00,21.9,17.8,30.12,ENE,71,0.0,0.0,84,0.00,,,0.00,0,Wunderground v.1.15,2013-02-06 12:20:00,
2013-02-06 05:30:00,21.9,18.1,30.12,ENE,71,0.0,0.0,85,0.00,,,0.00,0,Wunderground v.1.15,2013-02-06 12:30:00,
2013-02-06 05:40:00,21.9,18.1,30.12,ENE,71,0.0,0.0,85,0.00,,,0.00,0,Wunderground v.1.15,2013-02-06 12:40:00,
2013-02-06 05:50:00,22.0,18.2,30.12,ENE,71,0.0,0.0,85,0.00,,,0.00,0,Wunderground v.1.15,2013-02-06 12:50:00,
2013-02-06 06:00:00,22.4,18.8,30.12,ENE,71,0.0,0.0,86,0.00,,,0.00,0,Wunderground v.1.15,2013-02-06 13:00:00,
2013-02-06 06:05:00,22.2,18.7,30.12,ENE,71,0.0,0.0,86,0.00,,,0.00,0,Wunderground v.1.15,2013-02-06 13:05:00,
2013-02-06 06:15:00,22.0,18.2,30.12,ENE,71,0.0,0.0,85,0.00,,,0.00,0,Wunderground v.1.15,2013-02-06 13:15:00,
2013-02-06 06:20:00,22.0,18.2,30.12,ENE,71,0.0,0.0,85,0.00,,,0.00,0,Wunderground v.1.15,2013-02-06 13:20:00,
2013-02-06 06:30:00,22.0,18.2,30.12,ENE,71,0.0,0.0,85,0.00,,,0.00,0,Wunderground v.1.15,2013-02-06 13:30:00,
2013-02-06 06:35:00,22.2,18.7,30.12,ENE,70,0.0,0.0,86,0.00,,,0.00,0,Wunderground v.1.15,2013-02-06 13:35:00,
2013-02-06 06:45:00,22.4,18.6,30.12,ENE,71,0.0,0.0,85,0.00,,,0.00,0,Wunderground v.1.15,2013-02-06 13:45:00,
2013-02-06 06:50:00,22.6,18.8,30.12,ENE,71,0.0,0.0,85,0.00,,,0.00,0,Wunderground v.1.15,2013-02-06 13:50:00,
2013-02-06 06:55:00,22.8,19.0,30.12,ENE,71,0.0,0.0,85,0.00,,,0.00,0,Wunderground v.1.15,2013-02-06 13:55:00,
2013-02-06 07:05:00,22.7,18.9,30.12,ENE,70,0.0,0.0,85,0.00,,,0.00,5,Wunderground v.1.15,2013-02-06 14:05:00,
2013-02-06 07:10:00,22.8,19.0,30.13,ENE,71,0.0,1.0,85,0.00,,,0.00,11,Wunderground v.1.15,2013-02-06 14:10:00,
2013-02-06 07:15:00,22.8,19.0,30.13,ENE,70,0.0,1.0,85,0.00,,,0.00,14,Wunderground v.1.15,2013-02-06 14:15:00,
2013-02-06 07:25:00,22.7,18.9,30.13,ENE,71,0.0,1.0,85,0.00,,,0.00,18,Wunderground v.1.15,2013-02-06 14:25:00,
2013-02-06 07:30:00,22.7,18.6,30.13,ENE,71,0.0,1.0,84,0.00,,,0.00,19,Wunderground v.1.15,2013-02-06 14:30:00,
2013-02-06 07:35:00,22.6,18.5,30.13,ENE,71,0.0,1.0,84,0.00,,,0.00,21,Wunderground v.1.15,2013-02-06 14:35:00,
2013-02-06 07:45:00,22.7,18.6,30.13,ENE,71,0.0,1.0,84,0.00,,,0.00,26,Wunderground v.1.15,2013-02-06 14:45:00,
2013-02-06 07:55:00,23.4,19.6,30.13,ENE,71,0.0,1.0,85,0.00,,,0.00,30,Wunderground v.1.15,2013-02-06 14:55:00,
2013-02-06 08:00:00,23.1,19.0,30.13,ENE,71,0.0,1.0,84,0.00,,,0.00,54,Wunderground v.1.15,2013-02-06 15:00:00,
2013-02-06 08:05:00,22.9,18.8,30.12,ENE,71,0.0,1.0,84,0.00,,,0.00,81,Wunderground v.1.15,2013-02-06 15:05:00,
2013-02-06 08:10:00,22.9,18.8,30.13,ENE,71,0.0,1.0,84,0.00,,,0.00,114,Wunderground v.1.15,2013-02-06 15:10:00,
2013-02-06 08:20:00,23.5,19.4,30.13,ENE,71,0.0,1.0,84,0.00,,,0.00,132,Wunderground v.1.15,2013-02-06 15:20:00,
2013-02-06 08:30:00,24.2,20.1,30.13,ENE,71,0.0,1.0,84,0.00,,,0.00,123,Wunderground v.1.15,2013-02-06 15:30:00,
2013-02-06 08:40:00,24.7,20.6,30.13,ENE,71,0.0,1.0,84,0.00,,,0.00,98,Wunderground v.1.15,2013-02-06 15:40:00,
2013-02-06 08:50:00,25.1,20.9,30.13,ENE,71,0.0,1.0,84,0.00,,,0.00,74,Wunderground v.1.15,2013-02-06 15:50:00,
2013-02-06 09:00:00,26.4,22.5,30.12,ENE,77,2.0,3.0,85,0.00,,,0.00,207,Wunderground v.1.15,2013-02-06 16:00:00,
2013-02-06 09:05:00,27.9,24.3,30.12,ENE,77,2.0,3.0,86,0.00,,,0.00,309,Wunderground v.1.15,2013-02-06 16:05:00,
2013-02-06 09:15:00,28.9,24.7,30.11,ENE,77,0.0,2.0,84,0.00,,,0.00,432,Wunderground v.1.15,2013-02-06 16:15:00,
2013-02-06 09:20:00,29.1,24.6,30.11,ENE,76,1.0,1.0,83,0.00,,,0.00,526,Wunderground v.1.15,2013-02-06 16:20:00,
2013-02-06 09:35:00,29.0,24.2,30.11,ENE,73,1.0,3.0,82,0.00,,,0.00,213,Wunderground v.1.15,2013-02-06 16:35:00,
2013-02-06 09:45:00,30.1,25.8,30.10,ENE,66,3.0,4.0,84,0.00,,,0.00,276,Wunderground v.1.15,2013-02-06 16:45:00,
2013-02-06 09:55:00,30.3,25.5,30.10,NE,48,4.0,7.0,82,0.00,,,0.00,260,Wunderground v.1.15,2013-02-06 16:55:00,
2013-02-06 10:00:00,30.8,25.4,30.10,ENE,62,5.0,5.0,80,0.00,,,0.00,253,Wunderground v.1.15,2013-02-06 17:00:00,
2013-02-06 10:05:00,31.6,26.4,30.10,ENE,63,5.0,5.0,81,0.00,,,0.00,278,Wunderground v.1.15,2013-02-06 17:05:00,
2013-02-06 10:15:00,32.3,25.6,30.10,ENE,62,5.0,8.0,76,0.00,,,0.00,429,Wunderground v.1.15,2013-02-06 17:15:00,
2013-02-06 10:25:00,32.8,27.0,30.09,ENE,72,5.0,7.0,79,0.00,,,0.00,462,Wunderground v.1.15,2013-02-06 17:25:00,
2013-02-06 10:30:00,33.5,26.4,30.09,ENE,60,6.0,7.0,75,0.00,,,0.00,483,Wunderground v.1.15,2013-02-06 17:30:00,
2013-02-06 10:35:00,34.0,26.3,30.09,ENE,76,7.0,7.0,73,0.00,,,0.00,503,Wunderground v.1.15,2013-02-06 17:35:00,
2013-02-06 10:40:00,34.4,27.3,30.09,ENE,73,7.0,8.0,75,0.00,,,0.00,499,Wunderground v.1.15,2013-02-06 17:40:00,
2013-02-06 10:50:00,34.2,26.8,30.08,East,91,5.0,6.0,74,0.00,,,0.00,225,Wunderground v.1.15,2013-02-06 17:50:00,
2013-02-06 11:00:00,34.8,27.4,30.08,ENE,75,5.0,5.0,74,0.00,,,0.00,279,Wunderground v.1.15,2013-02-06 18:00:00,
2013-02-06 11:10:00,35.5,27.7,30.07,ENE,58,4.0,4.0,73,0.00,,,0.00,557,Wunderground v.1.15,2013-02-06 18:10:00,
2013-02-06 11:15:00,36.0,27.8,30.07,ENE,73,4.0,4.0,72,0.00,,,0.00,626,Wunderground v.1.15,2013-02-06 18:15:00,
2013-02-06 11:20:00,37.0,28.1,30.07,East,83,4.0,4.0,70,0.00,,,0.00,534,Wunderground v.1.15,2013-02-06 18:20:00,
2013-02-06 11:30:00,38.0,26.9,30.07,East,83,1.0,1.0,64,0.00,,,0.00,313,Wunderground v.1.15,2013-02-06 18:30:00,
2013-02-06 11:35:00,37.9,26.0,30.07,SSW,212,1.0,3.0,62,0.00,,,0.00,292,Wunderground v.1.15,2013-02-06 18:35:00,
2013-02-06 11:45:00,38.2,25.9,30.07,SW,216,1.0,3.0,61,0.00,,,0.00,265,Wunderground v.1.15,2013-02-06 18:45:00,
2013-02-06 11:50:00,38.3,25.6,30.08,SW,216,2.0,2.0,60,0.00,,,0.00,251,Wunderground v.1.15,2013-02-06 18:50:00,
2013-02-06 11:55:00,38.5,25.0,30.07,SW,216,1.0,3.0,58,0.00,,,0.00,279,Wunderground v.1.15,2013-02-06 18:55:00,
2013-02-06 12:05:00,39.2,25.2,30.07,SSW,210,1.0,1.0,57,0.00,,,0.00,294,Wunderground v.1.15,2013-02-06 19:05:00,
2013-02-06 12:15:00,40.1,27.3,30.06,SW,219,1.0,2.0,60,0.00,,,0.00,299,Wunderground v.1.15,2013-02-06 19:15:00,
2013-02-06 12:25:00,40.6,25.7,30.06,SSW,212,1.0,2.0,55,0.00,,,0.00,315,Wunderground v.1.15,2013-02-06 19:25:00,
2013-02-06 12:35:00,41.4,26.9,30.05,SW,215,0.0,4.0,56,0.00,,,0.00,325,Wunderground v.1.15,2013-02-06 19:35:00,
2013-02-06 12:45:00,41.2,27.5,30.05,SW,222,2.0,2.0,58,0.00,,,0.00,292,Wunderground v.1.15,2013-02-06 19:45:00,
2013-02-06 12:50:00,41.7,26.7,30.05,SW,222,1.0,3.0,55,0.00,,,0.00,302,Wunderground v.1.15,2013-02-06 19:50:00,
2013-02-06 13:00:00,42.2,27.2,30.04,SW,222,1.0,1.0,55,0.00,,,0.00,285,Wunderground v.1.15,2013-02-06 20:00:00,
2013-02-06 13:10:00,42.2,25.8,30.03,SW,222,1.0,1.0,52,0.00,,,0.00,257,Wunderground v.1.15,2013-02-06 20:10:00,
2013-02-06 13:15:00,42.5,27.0,30.03,SW,222,1.0,2.0,54,0.00,,,0.00,243,Wunderground v.1.15,2013-02-06 20:15:00,
2013-02-06 13:25:00,43.4,26.9,30.03,SW,222,0.0,2.0,52,0.00,,,0.00,209,Wunderground v.1.15,2013-02-06 20:25:00,
2013-02-06 13:35:00,43.6,26.6,30.03,SW,222,0.0,2.0,51,0.00,,,0.00,218,Wunderground v.1.15,2013-02-06 20:35:00,
2013-02-06 13:40:00,43.5,27.9,30.03,SW,222,0.0,3.0,54,0.00,,,0.00,232,Wunderground v.1.15,2013-02-06 20:40:00,
2013-02-06 13:45:00,43.5,27.5,30.03,SW,222,1.0,3.0,53,0.00,,,0.00,265,Wunderground v.1.15,2013-02-06 20:45:00,
2013-02-06 13:55:00,44.1,28.5,30.02,SW,220,1.0,2.0,54,0.00,,,0.00,232,Wunderground v.1.15,2013-02-06 20:55:00,
2013-02-06 14:05:00,44.5,29.8,30.02,SE,136,2.0,2.0,56,0.00,,,0.00,220,Wunderground v.1.15,2013-02-06 21:05:00,
2013-02-06 14:15:00,45.3,31.0,30.02,SW,226,1.0,3.0,57,0.00,,,0.00,206,Wunderground v.1.15,2013-02-06 21:15:00,
2013-02-06 14:25:00,45.1,31.2,30.02,SW,228,4.0,4.0,58,0.00,,,0.00,183,Wunderground v.1.15,2013-02-06 21:25:00,
2013-02-06 14:35:00,44.7,30.8,30.02,SW,216,4.0,6.0,58,0.00,,,0.00,190,Wunderground v.1.15,2013-02-06 21:35:00,
2013-02-06 14:45:00,44.6,32.0,30.02,SW,226,4.0,5.0,61,0.00,,,0.00,279,Wunderground v.1.15,2013-02-06 21:45:00,
2013-02-06 14:50:00,44.6,31.1,30.03,SW,220,4.0,4.0,59,0.00,,,0.00,297,Wunderground v.1.15,2013-02-06 21:50:00,
2013-02-06 15:00:00,44.5,31.9,30.02,SSW,198,3.0,3.0,61,0.00,,,0.00,186,Wunderground v.1.15,2013-02-06 22:00:00,
2013-02-06 15:05:00,44.6,32.0,30.03,SW,235,3.0,3.0,61,0.00,,,0.00,158,Wunderground v.1.15,2013-02-06 22:05:00,
2013-02-06 15:15:00,44.7,31.7,30.03,SW,217,2.0,3.0,60,0.00,,,0.00,130,Wunderground v.1.15,2013-02-06 22:15:00,
2013-02-06 15:20:00,44.9,32.3,30.03,SW,220,2.0,2.0,61,0.00,,,0.00,144,Wunderground v.1.15,2013-02-06 22:20:00,
2013-02-06 15:30:00,44.9,31.8,30.03,SW,219,3.0,5.0,60,0.00,,,0.00,151,Wunderground v.1.15,2013-02-06 22:30:00,
2013-02-06 15:35:00,44.9,31.4,30.03,SSW,200,3.0,5.0,59,0.00,,,0.00,163,Wunderground v.1.15,2013-02-06 22:35:00,
2013-02-06 15:45:00,45.4,31.0,30.03,SW,216,3.0,3.0,57,0.00,,,0.00,158,Wunderground v.1.15,2013-02-06 22:45:00,
2013-02-06 15:55:00,45.5,30.7,30.03,WSW,243,2.0,5.0,56,0.00,,,0.00,114,Wunderground v.1.15,2013-02-06 22:55:00,
2013-02-06 16:05:00,45.2,30.0,30.03,SSW,198,1.0,3.0,55,0.00,,,0.00,93,Wunderground v.1.15,2013-02-06 23:05:00,
2013-02-06 16:10:00,45.1,32.4,30.03,SSE,157,2.0,6.0,61,0.00,,,0.00,81,Wunderground v.1.15,2013-02-06 23:10:00,
2013-02-06 16:20:00,44.2,32.4,30.04,SW,233,3.0,6.0,63,0.00,,,0.00,63,Wunderground v.1.15,2013-02-06 23:20:00,
2013-02-06 16:30:00,43.8,32.0,30.04,SSE,163,2.0,6.0,63,0.00,,,0.00,65,Wunderground v.1.15,2013-02-06 23:30:00,
2013-02-06 16:35:00,43.4,31.6,30.04,SSE,167,2.0,6.0,63,0.00,,,0.00,58,Wunderground v.1.15,2013-02-06 23:35:00,
2013-02-06 16:45:00,43.4,32.4,30.05,SSW,210,1.0,6.0,65,0.00,,,0.00,46,Wunderground v.1.15,2013-02-06 23:45:00,
2013-02-06 16:50:00,43.1,32.9,30.05,SSW,209,2.0,6.0,67,0.00,,,0.00,30,Wunderground v.1.15,2013-02-06 23:50:00,
2013-02-06 16:55:00,42.8,32.6,30.05,SW,219,2.0,6.0,67,0.00,,,0.00,25,Wunderground v.1.15,2013-02-06 23:55:00,
2013-02-06 17:05:00,42.8,33.3,30.06,WSW,247,2.0,6.0,69,0.00,,,0.00,18,Wunderground v.1.15,2013-02-07 00:05:00,
2013-02-06 17:15:00,42.1,32.3,30.07,WSW,244,3.0,6.0,68,0.00,,,0.00,7,Wunderground v.1.15,2013-02-07 00:15:00,
2013-02-06 17:20:00,42.0,32.2,30.07,SW,235,3.0,3.0,68,0.00,,,0.00,5,Wunderground v.1.15,2013-02-07 00:20:00,
2013-02-06 17:30:00,42.4,32.6,30.07,SSE,166,1.0,6.0,68,0.00,,,0.00,0,Wunderground v.1.15,2013-02-07 00:30:00,
2013-02-06 17:35:00,42.4,32.6,30.08,SW,231,2.0,6.0,68,0.00,,,0.00,0,Wunderground v.1.15,2013-02-07 00:35:00,
2013-02-06 17:45:00,41.7,32.3,30.08,SW,235,4.0,6.0,69,0.00,,,0.00,0,Wunderground v.1.15,2013-02-07 00:45:00,
2013-02-06 17:50:00,41.7,32.6,30.08,SSW,203,3.0,3.0,70,0.00,,,0.00,0,Wunderground v.1.15,2013-02-07 00:50:00,
2013-02-06 17:55:00,41.7,32.3,30.09,SSW,201,2.0,6.0,69,0.00,,,0.00,0,Wunderground v.1.15,2013-02-07 00:55:00,
2013-02-06 18:05:00,41.6,32.9,30.10,SW,218,2.0,7.0,71,0.00,,,0.00,0,Wunderground v.1.15,2013-02-07 01:05:00,
2013-02-06 18:15:00,40.8,32.8,30.11,SSW,208,3.0,3.0,73,0.00,,,0.00,0,Wunderground v.1.15,2013-02-07 01:15:00,
2013-02-06 18:25:00,39.8,33.5,30.11,NW,314,1.0,2.0,78,0.00,,,0.00,0,Wunderground v.1.15,2013-02-07 01:25:00,
2013-02-06 18:30:00,39.1,33.1,30.11,NNW,329,1.0,1.0,79,0.00,,,0.00,0,Wunderground v.1.15,2013-02-07 01:30:00,
2013-02-06 18:40:00,38.1,33.1,30.12,North,10,1.0,1.0,82,0.00,,,0.00,0,Wunderground v.1.15,2013-02-07 01:40:00,
2013-02-06 18:50:00,37.7,33.0,30.12,North,8,1.0,1.0,83,0.00,,,0.00,0,Wunderground v.1.15,2013-02-07 01:50:00,
2013-02-06 18:55:00,37.8,33.4,30.12,NNW,337,1.0,1.0,84,0.00,,,0.00,0,Wunderground v.1.15,2013-02-07 01:55:00,
2013-02-06 19:05:00,37.6,33.5,30.13,NW,320,0.0,2.0,85,0.00,,,0.00,0,Wunderground v.1.15,2013-02-07 02:05:00,
2013-02-06 19:15:00,37.8,33.7,30.13,NE,38,1.0,5.0,85,0.00,,,0.00,0,Wunderground v.1.15,2013-02-07 02:15:00,
2013-02-06 19:20:00,37.6,33.8,30.13,NE,39,1.0,5.0,86,0.00,,,0.00,0,Wunderground v.1.15,2013-02-07 02:20:00,
2013-02-06 19:30:00,37.5,33.7,30.13,ENE,64,1.0,1.0,86,0.00,,,0.00,0,Wunderground v.1.15,2013-02-07 02:30:00,
2013-02-06 19:40:00,37.1,33.3,30.13,ENE,60,0.0,5.0,86,0.00,,,0.00,0,Wunderground v.1.15,2013-02-07 02:40:00,
2013-02-06 19:45:00,37.1,33.3,30.14,NNE,12,1.0,5.0,86,0.00,,,0.00,0,Wunderground v.1.15,2013-02-07 02:45:00,
2013-02-06 19:55:00,37.3,33.8,30.14,NNE,13,0.0,5.0,87,0.00,,,0.00,0,Wunderground v.1.15,2013-02-07 02:55:00,
2013-02-06 20:05:00,37.6,34.1,30.15,NNE,27,1.0,5.0,87,0.00,,,0.00,0,Wunderground v.1.15,2013-02-07 03:05:00,
2013-02-06 20:15:00,37.1,33.3,30.16,NNE,31,1.0,5.0,86,0.00,,,0.00,0,Wunderground v.1.15,2013-02-07 03:15:00,
2013-02-06 20:25:00,37.2,33.7,30.16,WSW,258,1.0,5.0,87,0.00,,,0.00,0,Wunderground v.1.15,2013-02-07 03:25:00,
2013-02-06 20:35:00,37.0,33.2,30.15,West,270,0.0,5.0,86,0.00,,,0.00,0,Wunderground v.1.15,2013-02-07 03:35:00,
2013-02-06 20:45:00,36.9,33.4,30.15,ENE,76,1.0,5.0,87,0.00,,,0.00,0,Wunderground v.1.15,2013-02-07 03:45:00,
2013-02-06 20:50:00,36.8,33.3,30.16,ENE,76,0.0,5.0,87,0.00,,,0.00,0,Wunderground v.1.15,2013-02-07 03:50:00,
2013-02-06 20:55:00,36.8,33.0,30.16,ENE,76,0.0,5.0,86,0.00,,,0.00,0,Wunderground v.1.15,2013-02-07 03:55:00,
2013-02-06 21:05:00,36.9,33.1,30.16,ENE,76,0.0,5.0,86,0.00,,,0.00,0,Wunderground v.1.15,2013-02-07 04:05:00,
2013-02-06 21:15:00,36.8,32.7,30.17,NNE,17,2.0,2.0,85,0.00,,,0.00,0,Wunderground v.1.15,2013-02-07 04:15:00,
2013-02-06 21:20:00,37.1,33.0,30.17,NNE,31,3.0,3.0,85,0.00,,,0.00,0,Wunderground v.1.15,2013-02-07 04:20:00,
2013-02-06 21:30:00,37.0,32.9,30.17,NNE,33,3.0,3.0,85,0.00,,,0.00,0,Wunderground v.1.15,2013-02-07 04:30:00,
2013-02-06 21:35:00,36.8,32.7,30.17,NNE,33,2.0,3.0,85,0.00,,,0.00,0,Wunderground v.1.15,2013-02-07 04:35:00,
2013-02-06 21:45:00,36.5,32.1,30.17,NNE,31,2.0,4.0,84,0.00,,,0.00,0,Wunderground v.1.15,2013-02-07 04:45:00,
2013-02-06 21:55:00,36.1,31.7,30.17,NNE,31,4.0,4.0,84,0.00,,,0.00,0,Wunderground v.1.15,2013-02-07 04:55:00,
2013-02-06 22:00:00,36.2,31.5,30.18,North,4,4.0,4.0,83,0.00,,,0.00,0,Wunderground v.1.15,2013-02-07 05:00:00,
2013-02-06 22:05:00,36.3,31.6,30.18,NE,43,3.0,4.0,83,0.00,,,0.00,0,Wunderground v.1.15,2013-02-07 05:05:00,
2013-02-06 22:10:00,36.3,31.3,30.18,NE,43,2.0,2.0,82,0.00,,,0.00,0,Wunderground v.1.15,2013-02-07 05:10:00,
2013-02-06 22:15:00,36.2,31.5,30.18,NE,43,1.0,3.0,83,0.00,,,0.00,0,Wunderground v.1.15,2013-02-07 05:15:00,
2013-02-06 22:25:00,36.0,31.3,30.18,NE,43,0.0,3.0,83,0.00,,,0.00,0,Wunderground v.1.15,2013-02-07 05:25:00,
2013-02-06 22:30:00,36.0,31.6,30.18,NE,43,1.0,3.0,84,0.00,,,0.00,0,Wunderground v.1.15,2013-02-07 05:30:00,
2013-02-06 22:40:00,36.1,32.0,30.18,NE,47,2.0,2.0,85,0.00,,,0.00,0,Wunderground v.1.15,2013-02-07 05:40:00,
2013-02-06 22:45:00,35.6,31.5,30.18,NE,47,1.0,3.0,85,0.00,,,0.00,0,Wunderground v.1.15,2013-02-07 05:45:00,
2013-02-06 22:55:00,35.2,31.1,30.19,NE,47,0.0,3.0,85,0.00,,,0.00,0,Wunderground v.1.15,2013-02-07 05:55:00,
2013-02-06 23:05:00,35.2,31.1,30.20,NE,47,0.0,3.0,85,0.00,,,0.00,0,Wunderground v.1.15,2013-02-07 06:05:00,
2013-02-06 23:15:00,34.9,30.8,30.20,NE,47,0.0,3.0,85,0.00,,,0.00,0,Wunderground v.1.15,2013-02-07 06:15:00,
2013-02-06 23:25:00,34.5,30.5,30.21,NNW,346,0.0,3.0,85,0.00,,,0.00,0,Wunderground v.1.15,2013-02-07 06:25:00,
2013-02-06 23:30:00,34.6,30.6,30.21,NE,36,1.0,4.0,85,0.00,,,0.00,0,Wunderground v.1.15,2013-02-07 06:30:00,
2013-02-06 23:45:00,34.6,29.7,30.22,NNE,16,3.0,4.0,82,0.00,,,0.00,0,Wunderground v.1.15,2013-02-07 06:45:00,
2013-02-06 23:55:00,34.7,29.5,30.22,NNW,348,6.0,9.0,81,0.00,,,0.00,0,Wunderground v.1.15,2013-02-07 06:55:00,